Home   Weather   Wittenberg   Past weeks

Flag for Germany Past Weather in Wittenberg, Saxony-Anhalt, Germany — Yesterday and Last 2 Weeks

Now
43 °F

Passing clouds.


Feels Like: 43 °F
Forecast: 34 / 51 °F
Wind: 1 mph from North

Location: Holzdorf

Current Time: Apr 25, 2017 at 4:58:55 am

Latest Report: Apr 25, 2017 at 3:20 am


Visibility: N/A

Pressure: 29.65 "Hg

Humidity: 71%

Dew Point: 34 °F

Location of WittenbergLocation

Past Weather in Wittenberg — Graph

°F

Wittenberg Temperature Yesterday

Maximum temperature yesterday: 57 °F (at 3:20 pm)
Minimum temperature yesterday: 30 °F (at 6:20 am)
Average temperature yesterday: 46 °F

High & Low Weather Summary for the Past Weeks

 TemperatureHumidityPressure
High72 °F (Apr 10, 1:20 pm)100% (Apr 10, 2:20 am)30.57 "Hg (Apr 10, 2:20 am)
Low25 °F (Apr 20, 5:20 am)36% (Apr 24, 3:20 pm)29.65 "Hg (Apr 25, 2:20 am)
Average45 °F70%30.08 "Hg
* Reported Apr 10 2:20 am — Apr 25 2:20 am, Wittenberg, Weather by CustomWeather, © 2017

Note: Actual official high and low records may vary slightly from our data, if they occured in-between our weather recording intervals... More about our weather records

Advertising

Wittenberg Weather History for the Previous 24 Hours

Scroll right to see more
 ConditionsComfort  
Time TempWeatherWind HumidityBarometerVisibility
2:20 am
Tue, Apr 25
45 °FPassing clouds.5 mph66%29.65 "HgN/A
1:20 am48 °FPassing clouds.6 mph58%29.68 "HgN/A
12:20 am50 °FPassing clouds.5 mph54%29.71 "HgN/A
12:00 am50 °FPassing clouds.2 mph54%29.74 "HgN/A
11:20 pm
Mon, Apr 24
50 °FPassing clouds.3 mph58%29.74 "HgN/A
10:20 pm50 °FPassing clouds.2 mph54%29.77 "HgN/A
9:20 pm48 °FPartly cloudy.1 mph58%29.77 "HgN/A
8:20 pm52 °FPartly cloudy.3 mph50%29.80 "HgN/A
7:20 pm57 °FBroken clouds.7 mph39%29.80 "HgN/A
6:20 pm57 °FBroken clouds.16 mph39%29.83 "HgN/A
5:20 pm57 °FBroken clouds.17 mph36%29.83 "HgN/A
4:20 pm57 °FBroken clouds.18 mph36%29.86 "HgN/A
3:20 pm57 °FBroken clouds.16 mph36%29.89 "HgN/A
2:20 pm55 °FPartly sunny.17 mph38%29.92 "HgN/A
1:20 pm54 °FPartly sunny.16 mph41%29.95 "HgN/A
12:20 pm52 °FScattered clouds.15 mph41%30.01 "HgN/A
11:20 am48 °FScattered clouds.12 mph50%30.04 "HgN/A
10:20 am48 °FPassing clouds.10 mph50%30.04 "HgN/A
9:20 am45 °FPassing clouds.12 mph61%30.07 "HgN/A
8:20 am41 °FPassing clouds.7 mph70%30.09 "HgN/A
7:20 am36 °FPassing clouds.1 mph81%30.09 "HgN/A
6:20 am30 °FPassing clouds.2 mph93%30.09 "HgN/A
5:20 am32 °FPassing clouds.3 mph87%30.12 "HgN/A
4:20 am32 °FPassing clouds.3 mph87%30.12 "HgN/A
Weather by CustomWeather, © 2017

See weather overviewHow to use our weather pages